Terminal Aerodrome Forecast
Issued by NWS Twin Cities, MN

Home | Current Version | Previous Version | Graphics & Text | Print | Product List | Glossary On
Versions: 1 2 3 4 5 6 7 8 9 10 11 12 13 14 15 16 17 18 19 20 21 22 23 24 25 26 27 28 29
000
FTUS43 KMPX 251736
TAFMSP
TAF
KMSP 251736Z 2518/2624 07012G18KT P6SM OVC018
     FM260000 06010KT P6SM OVC020
     FM260500 04007KT 6SM -RA BR OVC012
     FM260800 03007KT 4SM -DZ BR SCT005 OVC007
     FM261500 03006KT P6SM OVC015=

USA.gov is the U.S. government's official web portal to all federal, state and local government web resources and services.